Content
SEND FEEDBACK

Daily
Averages
Monthly
Summary
United States of America

BLACK EAGLE, MONTANA


Home > North America > United States > Montana
Elevation: 3365 feet     Latitude: 47 31N     Longitude: 111 18W

WEATHER
 
SELECT A DAY
Number of Records: 131,218;   Date Range: 1/1/95 - 7/29/14
 
SHARE

PRINT THIS DATA

[ ← Previous Day ]
WEATHER ALMANAC - FEBRUARY 13, 2013
[ Next Day → ]
[ °C ]   °F
Weather ElementAverageHighLow
Temperature35.8 °F48 °F (12:56 pm)26.1 °F (9:56 pm)
Dewpoint22.2 °F28.4 °F (7:38 pm)10.9 °F (1:56 pm)
Humidity63 %93 % (7:38 pm)22 % (1:56 pm)
Barometer30.07 in30.36 in (11:56 pm)29.91 in (1:56 am)
Wind Speed15 mph28.8 mph (1:56 am)
Wind Gust39.1 mph (1:56 am)
Weather ElementAverage
Visibility7.6 mi
Wind DirectionSSW (210.3 °)

Weather ElementTotal
Precipitation---
Heating Degree Days28 (Base 65)
Averaged from 34 records on February 13, 2013
WEATHER CONDITIONS BREAKOUT
WIND DIRECTION BREAKOUT
WEATHER BY HOUR - FEBRUARY 13, 2013
[ °C ]   °F
Local TimeTemperatureDewpointHumidityBarometerVisibilityWind DirectionWind SpeedGust SpeedPrecipitationEventsConditions
1:56 AM39.9 °F23.0 °F51 %29.91 in10.0 miSSW (210°)28.8 mph39.1 mphClear
2:56 AM39.0 °F23.0 °F53 %29.91 in10.0 miSSW (210°)18.4 mphClear
3:56 AM41.0 °F21.9 °F47 %29.91 in10.0 miSW (220°)19.6 mph27.6 mphClear
4:56 AM41.0 °F21.9 °F47 %29.92 in10.0 miSW (220°)15.0 mph27.6 mphPartly Cloudy
5:56 AM39.9 °F23.0 °F51 %29.93 in10.0 miSSW (210°)16.1 mphOvercast
6:56 AM41.0 °F24.1 °F51 %29.96 in10.0 miWest (260°)13.8 mph19.6 mphOvercast
7:56 AM41.0 °F23.0 °F49 %29.96 in10.0 miSW (220°)11.5 mphOvercast
8:56 AM39.9 °F28.0 °F63 %29.97 in10.0 miWSW (250°)11.5 mph21.9 mphScattered Clouds
9:56 AM42.1 °F26.1 °F53 %29.99 in10.0 miWSW (250°)13.8 mph21.9 mphClear
10:56 AM45.0 °F25.0 °F46 %30.00 in10.0 miWest (260°)18.4 mph25.3 mphClear
11:56 AM46.9 °F12.9 °F25 %30.01 in10.0 miWest (270°)25.3 mph35.7 mphClear
12:56 PM48.0 °F12.9 °F24 %30.01 in10.0 miWest (260°)21.9 mph33.4 mphClear
1:56 PM48.0 °F10.9 °F22 %30.01 in10.0 miWest (270°)26.5 mph34.5 mphPartly Cloudy
2:56 PM46.9 °F14.0 °F27 %30.03 in10.0 miWest (260°)23.0 mph29.9 mphMostly Cloudy
3:56 PM45.0 °F15.1 °F30 %30.05 in10.0 miWest (270°)19.6 mph27.6 mphPartly Cloudy
4:56 PM44.1 °F16.0 °F32 %30.07 in10.0 miWest (280°)12.7 mph25.3 mphMostly Cloudy
5:42 PM35.6 °F21.2 °F56 %29.96 in10.0 miNE (40°)11.5 mphOvercast
5:56 PM35.1 °F21.9 °F59 %30.12 in10.0 miNNE (20°)6.9 mphMostly Cloudy
6:56 PM35.1 °F24.1 °F64 %30.17 in10.0 miNorth (350°)9.2 mphOvercast
7:33 PM32.0 °F26.6 °F80 %30.04 in4.0 miNorth (360°)13.8 mph0.00 inSnowLight Snow
7:38 PM30.2 °F28.4 °F93 %30.05 in2.5 miNorth (360°)15.0 mph0.00 inSnowLight Snow
7:51 PM30.2 °F28.4 °F93 %30.06 in1.5 miNorth (10°)15.0 mph0.00 inSnowLight Snow
7:56 PM30.0 °F28.0 °F92 %30.22 in1.2 miNorth (10°)18.4 mph0.00 inSnowLight Snow
8:27 PM28.4 °F26.6 °F93 %30.07 in3.0 miNorth (360°)16.1 mph0.00 inSnowLight Snow
8:44 PM28.4 °F26.6 °F93 %30.09 in2.0 miNorth (360°)15.0 mph0.00 inSnowLight Snow
8:47 PM28.4 °F26.6 °F93 %30.09 in1.2 miNorth (10°)13.8 mph0.00 inSnowLight Snow
8:56 PM28.0 °F25.0 °F88 %30.26 in3.0 miNorth (10°)13.8 mph0.00 inSnowLight Snow
9:16 PM28.4 °F24.8 °F86 %30.11 in1.8 miNorth (360°)13.8 mph0.00 inSnowLight Snow
9:31 PM26.6 °F21.2 °F80 %30.12 in3.0 miNorth (350°)13.8 mph0.00 inSnowLight Snow
9:47 PM26.6 °F21.2 °F80 %30.13 in10.0 miNorth (10°)16.1 mph0.00 inOvercast
9:56 PM26.1 °F21.0 °F81 %30.30 in10.0 miNorth (10°)12.7 mph0.00 inOvercast
10:56 PM26.1 °F21.9 °F84 %30.34 in5.0 miCalm0.00 inSnowLight Snow
11:16 PM26.6 °F21.2 °F80 %30.19 in9.0 miWNW (300°)4.6 mph0.00 inOvercast
11:56 PM26.1 °F19.0 °F75 %30.36 in10.0 miNW (310°)3.5 mph0.00 inOvercast
Hourly data recorded from KGFA, located miles away from Black Eagle, Montana







STORIES FROM OUR PARTNERS